GAMA Alpha

decayed
NORAD ID: 55084 Int'l Des: 2023-001 Owner: NANAV/GAMA Country: LT
LEOCIRCULARRETROGRADE

关于 GAMA Alpha

正在加载描述...

高度历史

Altitude vs Time

uPlot chart will show altitude changes over time

两行轨道根数

1 55084U 23001CD 26015.15329531 .13047569 25563-5 23669-3 0 9991
2 55084 97.3244 99.1987 0005972 264.5748 95.4875 16.47498174169965
Epoch: Jan 15, 2026 • Age: 1361 hours

当前状态

Position data unavailable
发射日期 Jan 3, 2023
运行时间 3.1 years
衰减日期 Jan 15, 2026
类型 other

技术详情

分类 Payload
质量 10.00 kg
干质量 10.00 kg
总质量 10.00 kg
长度 0.30 m
直径 0.20 m
跨度 8.50 m
形状 Box+Sail
制造商 NANAV
平台类型 Cubesat 6U
阶段状态 Reentered
所有者/国家 NANAV/GAMA/LT

大型星座

Loading constellations...